Location: Cluj-Napoca
(46.7712°N, 23.6236°E)
Time: 07:42:20
(UTC+02:00)

ISS - Pass Details

Date: 18 January 2021
Orbit: 418 x 421 km, 51.6° (Epoch: 23 January)

Event Time Altitude Azimuth Distance (km) Brightness Sun altitude
Rises 19:38:47 0° 225° (SW) 2,360 0.8 -25.3°
Reaches altitude 10° 19:40:56 10° 219° (SW) 1,500 -0.5 -25.7°
Enters shadow 19:41:51 17° 213° (SSW) 1,151 -1.2 -25.8°
